Weather History for KSRQ - December, 2013

Change the Weather History Date:

Wednesday, December 25, 2013

  Actual Average Record
Temperature  
Mean Temperature 64 °F 62 °F  
Max Temperature 78 °F 72 °F 84 °F (1998)
Min Temperature 50 °F 52 °F 22 °F (1983)
Degree Days  
Heating Degree Days 1 5  
Month to date heating degree days 23 90  
Since 1 July heating degree days 41 123  
Cooling Degree Days 0 2  
Month to date cooling degree days 128 64  
Year to date cooling degree days 3756 3364  
Growing Degree Days 14 (Base 50)    
Moisture  
Dew Point 49 °F    
Average Humidity 61    
Maximum Humidity 68    
Minimum Humidity 48    
Precipitation  
Precipitation 0.00 in 0.09 in 2.12 in (2004)
Month to date precipitation 0.03 2.09  
Year to date precipitation 52.49 52.57  
Sea Level Pressure  
Sea Level Pressure 30.16 in    
Wind  
Wind Speed 10 mph (ENE)    
Max Wind Speed 17 mph    
Max Gust Speed 22 mph    
Visibility 10 miles    
Events      
T = Trace of Precipitation, MM = Missing Value Source: NWS Daily Summary

Daily Weather History Graph

Daily Weather History Graph

Search for Another Location

Airport or City:

Trip Planner

Search our weather history database for the weather conditions in past years. The results will help you decide how hot, cold, wet, or windy it might be!

Date:

Astronomy

Dec. 25, 2013 Rise Set
Actual Time 7:18 AM EST 5:43 PM EST
Civil Twilight 6:52 AM EST 6:08 PM EST
Nautical Twilight 6:23 AM EST 6:37 PM EST
Astronomical Twilight 5:54 AM EST 7:06 PM EST
Moon 12:13 AM EST (12/25) 12:19 PM EST (12/25)
Length of Visible Light 11h 16m
Length of Day
10h 25m
Waning Gibbous, 49% of the Moon is Illuminated
Dec 25
Waning Gibbous
Jan 1
New
Jan 7
First Quarter
Jan 15
Full
Jan 24
Last Quarter

Hourly Weather History & Observations

Time (EST) Temp. Dew Point Humidity Pressure Visibility Wind Dir Wind Speed Gust Speed Precip Events Conditions
12:53 AM 52.0 °F 37.9 °F 59% 30.22 in 10.0 mi NNE 11.5 mph - N/A   Clear
1:53 AM 52.0 °F 37.9 °F 59% 30.21 in 10.0 mi NNE 13.8 mph - N/A   Clear
2:53 AM 51.1 °F 37.9 °F 61% 30.19 in 10.0 mi NNE 11.5 mph - N/A   Clear
3:53 AM 51.1 °F 39.0 °F 63% 30.18 in 10.0 mi NE 8.1 mph - N/A   Clear
4:53 AM 51.1 °F 39.0 °F 63% 30.17 in 10.0 mi NNE 11.5 mph - N/A   Clear
5:53 AM 50.0 °F 39.0 °F 66% 30.17 in 10.0 mi NE 11.5 mph - N/A   Clear
6:53 AM 50.0 °F 39.0 °F 66% 30.18 in 10.0 mi NE 9.2 mph - N/A   Clear
7:53 AM 51.1 °F 41.0 °F 68% 30.19 in 10.0 mi NE 10.4 mph - N/A   Partly Cloudy
8:53 AM 55.0 °F 44.1 °F 67% 30.19 in 10.0 mi ENE 12.7 mph - N/A   Partly Cloudy
9:53 AM 60.1 °F 46.9 °F 62% 30.22 in 10.0 mi NE 11.5 mph - N/A   Partly Cloudy
10:53 AM 69.1 °F 51.1 °F 53% 30.20 in 10.0 mi ENE 13.8 mph 19.6 mph N/A   Clear
11:53 AM 73.9 °F 55.0 °F 52% 30.17 in 10.0 mi ENE 16.1 mph 20.7 mph N/A   Clear
12:53 PM 75.0 °F 55.9 °F 51% 30.14 in 10.0 mi East 15.0 mph - N/A   Clear
1:53 PM 77.0 °F 57.0 °F 50% 30.12 in 10.0 mi ENE 9.2 mph 18.4 mph N/A   Clear
2:53 PM 78.1 °F 57.0 °F 48% 30.10 in 10.0 mi ENE 11.5 mph - N/A   Clear
3:53 PM 78.1 °F 57.9 °F 50% 30.10 in 10.0 mi ENE 11.5 mph - N/A   Clear
4:53 PM 75.9 °F 57.9 °F 54% 30.12 in 10.0 mi ENE 6.9 mph - N/A   Partly Cloudy
5:53 PM 68.0 °F 57.0 °F 68% 30.13 in 10.0 mi ENE 6.9 mph - N/A   Clear
6:53 PM 70.0 °F 55.9 °F 61% 30.15 in 10.0 mi ENE 8.1 mph - N/A   Scattered Clouds
7:53 PM 68.0 °F 55.0 °F 63% 30.16 in 10.0 mi ENE 6.9 mph - N/A   Mostly Cloudy
8:53 PM 66.0 °F 55.0 °F 68% 30.16 in 10.0 mi ENE 9.2 mph - N/A   Clear
9:53 PM 64.9 °F 54.0 °F 68% 30.16 in 10.0 mi East 9.2 mph - N/A   Clear
10:53 PM 64.0 °F 54.0 °F 70% 30.15 in 10.0 mi ENE 9.2 mph - N/A   Clear
11:53 PM 62.1 °F 54.0 °F 75% 30.15 in 10.0 mi East 4.6 mph - N/A   Partly Cloudy